,,Stat5,,Stat1,,Stat2,,Stat3,,Stat4,,Wind1,,Wind1,
time,status,PA1M_AVG,status,PR1M_SUM,status,RH1M_AVG,status,SR1M_AVG,status,TA1M_AVG,status,W1dAve1m,status,W1sAve1m,
2001-11-07, 00:00:00,VALID,917.95,VALID,0,VALID,96.7653,VALID,0.0339617,VALID,19.8182,VALID,76,VALID,0.622944,
2001-11-07, 00:01:00,VALID,917.932,VALID,0,VALID,96.7322,VALID,0,VALID,19.7956,VALID,76,VALID,0.606971,
2001-11-07, 00:02:00,VALID,917.915,VALID,0,VALID,96.8797,VALID,0,VALID,19.7765,VALID,75,VALID,0.659856,
2001-11-07, 00:03:00,VALID,917.89,VALID,0,VALID,96.9382,VALID,0,VALID,19.7604,VALID,75,VALID,0.61238,
2001-11-07, 00:04:00,VALID,917.887,VALID,0,VALID,97.026,VALID,0,VALID,19.7536,VALID,75,VALID,0.596012,
2001-11-07, 00:05:00,VALID,917.868,VALID,0,VALID,97.0743,VALID,0.0169808,VALID,19.7507,VALID,75,VALID,0.479167,
2001-11-07, 00:06:00,VALID,917.858,VALID,0,VALID,97.0845,VALID,0.0339617,VALID,19.7507,VALID,75,VALID,0.446652,
2001-11-07, 00:07:00,VALID,917.83,VALID,0,VALID,97.0361,VALID,0.0339617,VALID,19.7278,VALID,79,VALID,0.488086,
2001-11-07, 00:08:00,VALID,917.813,VALID,0,VALID,96.9637,VALID,0.0169808,VALID,19.689,VALID,89,VALID,0.609158,
2001-11-07, 00:09:00,VALID,917.781,VALID,0,VALID,97.0311,VALID,0.0169808,VALID,19.6634,VALID,110,VALID,0.665148,
2001-11-07, 00:10:00,VALID,917.748,VALID,0,VALID,97.0603,VALID,0,VALID,19.6344,VALID,126,VALID,0.577069,
2001-11-07, 00:11:00,VALID,917.747,VALID,0,VALID,97.1684,VALID,0,VALID,19.6152,VALID,129,VALID,0.634046,
2001-11-07, 00:12:00,VALID,917.726,VALID,0,VALID,97.2638,VALID,0.0169808,VALID,19.6157,VALID,131,VALID,0.725296,
2001-11-07, 00:13:00,VALID,917.707,VALID,0,VALID,97.3998,VALID,0,VALID,19.6083,VALID,132,VALID,0.636613,
2001-11-07, 00:14:00,VALID,917.687,VALID,0,VALID,97.4202,VALID,0,VALID,19.6118,VALID,138,VALID,0.679464,
2001-11-07, 00:15:00,VALID,917.683,VALID,0,VALID,97.4698,VALID,0,VALID,19.5988,VALID,136,VALID,0.523026,
2001-11-07, 00:16:00,VALID,917.68,VALID,0,VALID,97.588,VALID,0,VALID,19.5889,VALID,146,VALID,0.740498,
2001-11-07, 00:17:00,VALID,917.657,VALID,0,VALID,97.6948,VALID,0,VALID,19.6118,VALID,147,VALID,0.397675,
2001-11-07, 00:18:00,VALID,917.647,VALID,0,VALID,97.7864,VALID,0,VALID,19.6282,VALID,149,VALID,0.650195,
2001-11-07, 00:19:00,VALID,917.629,VALID,0,VALID,97.8436,VALID,0,VALID,19.6349,VALID,138,VALID,0.588405,
2001-11-07, 00:20:00,VALID,917.608,VALID,0,VALID,97.9021,VALID,0,VALID,19.651,VALID,142,VALID,0.879934,
2001-11-07, 00:21:00,VALID,917.584,VALID,0,VALID,98.0458,VALID,-0.0169808,VALID,19.6637,VALID,143,VALID,1.02227,
2001-11-07, 00:22:00,VALID,917.556,VALID,0,VALID,98.1285,VALID,0,VALID,19.6935,VALID,146,VALID,1.09275,
2001-11-07, 00:23:00,VALID,917.528,VALID,0,VALID,98.1666,VALID,-0.0339617,VALID,19.6962,VALID,147,VALID,1.1096,
2001-11-07, 00:24:00,VALID,917.516,VALID,0,VALID,98.1615,VALID,0,VALID,19.6928,VALID,147,VALID,0.945117,
2001-11-07, 00:25:00,VALID,917.501,VALID,0,VALID,98.1857,VALID,0,VALID,19.69,VALID,146,VALID,1.04449,
2001-11-07, 00:26:00,VALID,917.484,VALID,0,VALID,98.192,VALID,0.0169808,VALID,19.6669,VALID,144,VALID,0.810981,
2001-11-07, 00:27:00,VALID,917.467,VALID,0,VALID,98.2365,VALID,0.0169808,VALID,19.6575,VALID,150,VALID,0.884615,
2001-11-07, 00:28:00,VALID,917.462,VALID,0,VALID,98.2785,VALID,0,VALID,19.6379,VALID,148,VALID,0.961143,
2001-11-07, 00:29:00,VALID,917.464,VALID,0,VALID,98.3167,VALID,0,VALID,19.6282,VALID,147,VALID,0.857113,
2001-11-07, 00:30:00,VALID,917.453,VALID,0,VALID,98.3434,VALID,0.0169808,VALID,19.6284,VALID,145,VALID,0.836993,
2001-11-07, 00:31:00,VALID,917.445,VALID,0,VALID,98.3675,VALID,0,VALID,19.618,VALID,141,VALID,0.648872,
2001-11-07, 00:32:00,VALID,917.421,VALID,0,VALID,98.3612,VALID,-0.0169808,VALID,19.6095,VALID,134,VALID,0.332348,
2001-11-07, 00:33:00,VALID,917.393,VALID,0,VALID,98.3942,VALID,-0.0169808,VALID,19.5834,VALID,123,VALID,0.302426,
2001-11-07, 00:34:00,VALID,917.386,VALID,0,VALID,98.3421,VALID,0,VALID,19.5705,VALID,102,VALID,0.277244,
2001-11-07, 00:35:00,VALID,917.367,VALID,0,VALID,98.1386,VALID,0,VALID,19.4898,VALID,92,VALID,0.166466,
2001-11-07, 00:36:00,VALID,917.348,VALID,0,VALID,98.1297,VALID,0,VALID,19.4286,VALID,92,VALID,0.217694,
2001-11-07, 00:37:00,VALID,917.341,VALID,0,VALID,98.1615,VALID,0,VALID,19.3832,VALID,92,VALID,0.209087,
2001-11-07, 00:38:00,VALID,917.318,VALID,0,VALID,98.2098,VALID,-0.0339617,VALID,19.3799,VALID,92,VALID,0.250401,
2001-11-07, 00:39:00,VALID,917.3,VALID,0,VALID,98.1742,VALID,0,VALID,19.3673,VALID,86,VALID,0.332933,
2001-11-07, 00:40:00,VALID,917.285,VALID,0,VALID,98.0649,VALID,0,VALID,19.328,VALID,63,VALID,0.407858,
2001-11-07, 00:41:00,VALID,917.255,VALID,0,VALID,97.9606,VALID,0,VALID,19.2801,VALID,54,VALID,0.374383,
2001-11-07, 00:42:00,VALID,917.241,VALID,0,VALID,97.7864,VALID,0,VALID,19.2117,VALID,43,VALID,0.505912,
2001-11-07, 00:43:00,VALID,917.21,VALID,0,VALID,97.6974,VALID,0.0339617,VALID,19.1536,VALID,35,VALID,0.524089,
2001-11-07, 00:44:00,VALID,917.188,VALID,0,VALID,97.7241,VALID,0,VALID,19.122,VALID,33,VALID,0.667318,
2001-11-07, 00:45:00,VALID,917.168,VALID,0,VALID,97.7114,VALID,0.0169808,VALID,19.1019,VALID,26,VALID,0.698602,
2001-11-07, 00:46:00,VALID,917.168,VALID,0,VALID,97.7457,VALID,0,VALID,19.0959,VALID,26,VALID,0.592694,
2001-11-07, 00:47:00,VALID,917.143,VALID,0,VALID,97.9072,VALID,0,VALID,19.1019,VALID,26,VALID,0.482589,
2001-11-07, 00:48:00,VALID,917.131,VALID,0,VALID,97.9085,VALID,0,VALID,19.089,VALID,26,VALID,0.332366,
2001-11-07, 00:49:00,VALID,917.142,VALID,0,VALID,97.8322,VALID,-0.0169808,VALID,19.0729,VALID,26,VALID,0.200041,
2001-11-07, 00:50:00,VALID,917.135,VALID,0,VALID,97.9352,VALID,0,VALID,19.0798,VALID,26,VALID,0.180689,
2001-11-07, 00:51:00,VALID,917.108,VALID,0,VALID,97.9797,VALID,0,VALID,19.1059,VALID,26,VALID,0.176563,
2001-11-07, 00:52:00,VALID,917.093,VALID,0,VALID,97.8398,VALID,0,VALID,19.0798,VALID,26,VALID,0.203742,
2001-11-07, 00:53:00,VALID,917.063,VALID,0,VALID,97.7546,VALID,0.0169808,VALID,19.0366,VALID,26,VALID,0.296453,
2001-11-07, 00:54:00,VALID,917.038,VALID,0,VALID,97.8055,VALID,0.0339617,VALID,19.054,VALID,26,VALID,0.371795,
2001-11-07, 00:55:00,VALID,917.022,VALID,0,VALID,97.9479,VALID,0,VALID,19.0696,VALID,26,VALID,0.233974,
2001-11-07, 00:56:00,VALID,917.005,VALID,0,VALID,98.1208,VALID,0.0169808,VALID,19.1347,VALID,26,VALID,0.206731,
2001-11-07, 00:57:00,VALID,916.999,VALID,0,VALID,98.262,VALID,0.0169808,VALID,19.1794,VALID,26,VALID,0.158482,
2001-11-07, 00:58:00,VALID,916.987,VALID,0,VALID,98.2912,VALID,0,VALID,19.2284,VALID,26,VALID,0.00390625,
2001-11-07, 00:59:00,VALID,916.964,VALID,0,VALID,98.2836,VALID,0,VALID,19.2482,VALID,26,VALID,0,
2001-11-07, 01:00:00,VALID,916.936,VALID,0,VALID,98.2582,VALID,0.0169808,VALID,19.244,VALID,26,VALID,0,
2001-11-07, 01:01:00,VALID,916.915,VALID,0,VALID,98.1819,VALID,0,VALID,19.2383,VALID,26,VALID,0,
2001-11-07, 01:02:00,VALID,916.895,VALID,0,VALID,98.0878,VALID,0,VALID,19.2155,VALID,26,VALID,0,
2001-11-07, 01:03:00,VALID,916.882,VALID,0,VALID,97.8296,VALID,0,VALID,19.1449,VALID,26,VALID,0.0251267,
2001-11-07, 01:04:00,VALID,916.853,VALID,0,VALID,97.6122,VALID,0.0169808,VALID,19.0701,VALID,26,VALID,0.408784,
2001-11-07, 01:05:00,VALID,916.838,VALID,0,VALID,97.6351,VALID,-0.0169808,VALID,19.041,VALID,26,VALID,0.614732,
2001-11-07, 01:06:00,VALID,916.812,VALID,0,VALID,97.6936,VALID,0.0169808,VALID,19.0351,VALID,26,VALID,0.80551,
2001-11-07, 01:07:00,VALID,916.782,VALID,0,VALID,97.8665,VALID,0.0169808,VALID,19.0574,VALID,27,VALID,0.861275,
2001-11-07, 01:08:00,VALID,916.766,VALID,0,VALID,97.7152,VALID,0,VALID,19.0284,VALID,28,VALID,0.785061,
2001-11-07, 01:09:00,VALID,916.749,VALID,0,VALID,97.4914,VALID,0,VALID,18.934,VALID,28,VALID,0.649609,
2001-11-07, 01:10:00,VALID,916.728,VALID,0,VALID,97.5906,VALID,0,VALID,18.9119,VALID,28,VALID,0.556538,
2001-11-07, 01:11:00,VALID,916.716,VALID,0,VALID,97.8614,VALID,0.0339617,VALID,18.9308,VALID,28,VALID,0.440173,
2001-11-07, 01:12:00,VALID,916.692,VALID,0,VALID,97.8576,VALID,0,VALID,18.9439,VALID,28,VALID,0.358203,
2001-11-07, 01:13:00,VALID,916.669,VALID,0,VALID,97.9848,VALID,0,VALID,18.9412,VALID,41,VALID,0.403446,
2001-11-07, 01:14:00,VALID,916.644,VALID,0,VALID,98.1895,VALID,0,VALID,18.9859,VALID,51,VALID,0.435937,
2001-11-07, 01:15:00,VALID,916.62,VALID,0,VALID,98.2111,VALID,0,VALID,19.0378,VALID,55,VALID,0.412695,
2001-11-07, 01:16:00,VALID,916.597,VALID,0,VALID,98.1653,VALID,0,VALID,19.0473,VALID,56,VALID,0.149306,
2001-11-07, 01:17:00,VALID,916.591,VALID,0,VALID,98.0471,VALID,0.0169808,VALID,19.0574,VALID,56,VALID,0,
2001-11-07, 01:18:00,VALID,916.579,VALID,0,VALID,97.9225,VALID,0.0169808,VALID,19.0544,VALID,56,VALID,0,
2001-11-07, 01:19:00,VALID,916.568,VALID,0,VALID,97.836,VALID,0.101885,VALID,19.0304,VALID,56,VALID,0,
2001-11-07, 01:20:00,VALID,916.561,VALID,0,VALID,97.808,VALID,0.101885,VALID,19.0175,VALID,56,VALID,0.00904605,
2001-11-07, 01:21:00,VALID,916.563,VALID,0,VALID,97.7355,VALID,0.101885,VALID,18.9916,VALID,56,VALID,0,
2001-11-07, 01:22:00,VALID,916.566,VALID,0,VALID,97.677,VALID,0.101885,VALID,18.9884,VALID,56,VALID,0,
2001-11-07, 01:23:00,VALID,916.572,VALID,0,VALID,97.7775,VALID,0.101885,VALID,19.0113,VALID,56,VALID,0.00105574,
2001-11-07, 01:24:00,VALID,916.583,VALID,0,VALID,97.8703,VALID,0.101885,VALID,19.0468,VALID,56,VALID,0.00246711,
2001-11-07, 01:25:00,VALID,916.57,VALID,0,VALID,97.9492,VALID,0.101885,VALID,19.092,VALID,56,VALID,0,
2001-11-07, 01:26:00,VALID,916.564,VALID,0,VALID,97.9784,VALID,0.0849042,VALID,19.128,VALID,56,VALID,0.00761218,
2001-11-07, 01:27:00,VALID,916.552,VALID,0,VALID,97.8512,VALID,0.101885,VALID,19.1243,VALID,16,VALID,0.111698,
2001-11-07, 01:28:00,VALID,916.536,VALID,0,VALID,97.8398,VALID,0.0679233,VALID,19.1404,VALID,257,VALID,0.337993,
2001-11-07, 01:29:00,VALID,916.498,VALID,0,VALID,97.9479,VALID,0.0679233,VALID,19.1926,VALID,328,VALID,0.398438,
2001-11-07, 01:30:00,VALID,916.483,VALID,0,VALID,97.8741,VALID,0.101885,VALID,19.2016,VALID,340,VALID,0.13722,
2001-11-07, 01:31:00,VALID,916.471,VALID,0,VALID,97.8868,VALID,0.0849042,VALID,19.2276,VALID,328,VALID,0.00183824,
2001-11-07, 01:32:00,VALID,916.471,VALID,0,VALID,97.3858,VALID,0.101885,VALID,19.1464,VALID,328,VALID,0,
2001-11-07, 01:33:00,VALID,916.459,VALID,0,VALID,97.2841,VALID,0.0849042,VALID,19.1047,VALID,328,VALID,0,
2001-11-07, 01:34:00,VALID,916.454,VALID,0,VALID,97.2701,VALID,-0.0169808,VALID,19.1227,VALID,328,VALID,0,
2001-11-07, 01:35:00,VALID,916.437,VALID,0,VALID,96.9446,VALID,0.0169808,VALID,19.051,VALID,328,VALID,0,
2001-11-07, 01:36:00,VALID,916.399,VALID,0,VALID,96.9878,VALID,0,VALID,19.0256,VALID,328,VALID,0,
2001-11-07, 01:37:00,VALID,916.394,VALID,0,VALID,96.9446,VALID,0,VALID,18.9958,VALID,328,VALID,0,
2001-11-07, 01:38:00,VALID,916.361,VALID,0,VALID,97.1836,VALID,0.0169808,VALID,19.0162,VALID,328,VALID,0,
2001-11-07, 01:39:00,VALID,916.353,VALID,0,VALID,97.2396,VALID,0,VALID,19.0229,VALID,328,VALID,0,
2001-11-07, 01:40:00,VALID,916.333,VALID,0,VALID,97.2803,VALID,0,VALID,19.0256,VALID,328,VALID,0,
2001-11-07, 01:41:00,VALID,916.34,VALID,0,VALID,97.0539,VALID,0,VALID,19.0099,VALID,348,VALID,0,
2001-11-07, 01:42:00,VALID,916.339,VALID,0,VALID,96.7551,VALID,0.0169808,VALID,18.9386,VALID,348,VALID,0.0847656,
2001-11-07, 01:43:00,VALID,916.322,VALID,0,VALID,96.3368,VALID,0,VALID,18.8122,VALID,13,VALID,0.362459,
2001-11-07, 01:44:00,VALID,916.324,VALID,0,VALID,96.0964,VALID,0,VALID,18.7054,VALID,31,VALID,0.417863,
2001-11-07, 01:45:00,VALID,916.312,VALID,0,VALID,96.2592,VALID,0.0169808,VALID,18.6507,VALID,32,VALID,0.457332,
2001-11-07, 01:46:00,VALID,916.285,VALID,0,VALID,97.1531,VALID,0.0169808,VALID,18.6923,VALID,39,VALID,0.550681,
2001-11-07, 01:47:00,VALID,916.281,VALID,0,VALID,97.6503,VALID,0.0169808,VALID,18.8097,VALID,38,VALID,0.519832,
2001-11-07, 01:48:00,VALID,916.279,VALID,0,VALID,97.7292,VALID,0,VALID,18.848,VALID,38,VALID,0.50558,
2001-11-07, 01:49:00,VALID,916.285,VALID,0,VALID,97.747,VALID,0,VALID,18.8637,VALID,38,VALID,0.33125,
2001-11-07, 01:50:00,VALID,916.282,VALID,0,VALID,97.6936,VALID,-0.0339617,VALID,18.8736,VALID,38,VALID,0.10026,
2001-11-07, 01:51:00,VALID,916.281,VALID,0,VALID,97.6389,VALID,-0.0169808,VALID,18.8805,VALID,38,VALID,0.0130208,
2001-11-07, 01:52:00,VALID,916.281,VALID,0,VALID,97.6541,VALID,-0.0169808,VALID,18.8738,VALID,38,VALID,0,
2001-11-07, 01:53:00,VALID,916.271,VALID,0,VALID,97.8067,VALID,0,VALID,18.9091,VALID,38,VALID,0,
2001-11-07, 01:54:00,VALID,916.259,VALID,0,VALID,97.8296,VALID,-0.0169808,VALID,18.9421,VALID,38,VALID,0,
2001-11-07, 01:55:00,VALID,916.255,VALID,0,VALID,97.9161,VALID,-0.0509425,VALID,18.9702,VALID,38,VALID,0,
2001-11-07, 01:56:00,VALID,916.253,VALID,0,VALID,97.9161,VALID,0,VALID,19.003,VALID,38,VALID,0,
2001-11-07, 01:57:00,VALID,916.232,VALID,0,VALID,97.8245,VALID,-0.0169808,VALID,18.9998,VALID,38,VALID,0,
2001-11-07, 01:58:00,VALID,916.238,VALID,0,VALID,97.6007,VALID,-0.0339617,VALID,18.964,VALID,38,VALID,0,
2001-11-07, 01:59:00,VALID,916.234,VALID,0,VALID,97.4647,VALID,0,VALID,18.9319,VALID,38,VALID,0,
2001-11-07, 02:00:00,VALID,916.236,VALID,0,VALID,97.3464,VALID,0,VALID,18.887,VALID,38,VALID,0,
2001-11-07, 02:01:00,VALID,916.233,VALID,0,VALID,97.1531,VALID,-0.0169808,VALID,18.8348,VALID,38,VALID,0.170025,
2001-11-07, 02:02:00,VALID,916.213,VALID,0,VALID,96.984,VALID,-0.0169808,VALID,18.767,VALID,61,VALID,0.340666,
2001-11-07, 02:03:00,VALID,916.201,VALID,0,VALID,97.0374,VALID,0,VALID,18.7186,VALID,125,VALID,0.39707,
2001-11-07, 02:04:00,VALID,916.185,VALID,0,VALID,97.0667,VALID,0,VALID,18.6962,VALID,125,VALID,0.077524,
2001-11-07, 02:05:00,VALID,916.189,VALID,0,VALID,97.1951,VALID,0,VALID,18.6835,VALID,125,VALID,0.0848214,
2001-11-07, 02:06:00,VALID,916.193,VALID,0,VALID,97.3464,VALID,-0.0169808,VALID,18.677,VALID,125,VALID,0.0320312,
2001-11-07, 02:07:00,VALID,916.189,VALID,0,VALID,97.5435,VALID,0,VALID,18.6897,VALID,125,VALID,0.0455729,
2001-11-07, 02:08:00,VALID,916.194,VALID,0,VALID,97.4507,VALID,-0.0169808,VALID,18.6997,VALID,125,VALID,0,
2001-11-07, 02:09:00,VALID,916.203,VALID,0,VALID,97.3477,VALID,-0.0509425,VALID,18.6706,VALID,125,VALID,0,
2001-11-07, 02:10:00,VALID,916.206,VALID,0,VALID,97.3223,VALID,-0.0169808,VALID,18.6609,VALID,125,VALID,0,
2001-11-07, 02:11:00,VALID,916.213,VALID,0,VALID,97.3718,VALID,-0.0339617,VALID,18.6415,VALID,125,VALID,0,
2001-11-07, 02:12:00,VALID,916.224,VALID,0,VALID,97.3706,VALID,-0.0169808,VALID,18.6487,VALID,125,VALID,0,
2001-11-07, 02:13:00,VALID,916.228,VALID,0,VALID,97.3375,VALID,-0.0509425,VALID,18.6256,VALID,125,VALID,0,
2001-11-07, 02:14:00,VALID,916.24,VALID,0,VALID,97.5664,VALID,-0.0169808,VALID,18.6872,VALID,125,VALID,0.0202703,
2001-11-07, 02:15:00,VALID,916.222,VALID,0,VALID,97.7851,VALID,0,VALID,18.7449,VALID,125,VALID,0,
2001-11-07, 02:16:00,VALID,916.198,VALID,0,VALID,97.7063,VALID,-0.0339617,VALID,18.7548,VALID,125,VALID,0,
2001-11-07, 02:17:00,VALID,916.189,VALID,0,VALID,97.6529,VALID,0,VALID,18.7553,VALID,125,VALID,0,
2001-11-07, 02:18:00,VALID,916.191,VALID,0,VALID,97.7508,VALID,-0.0339617,VALID,18.7571,VALID,125,VALID,0.00316723,
2001-11-07, 02:19:00,VALID,916.206,VALID,0,VALID,97.7559,VALID,-0.0339617,VALID,18.7779,VALID,116,VALID,0.00719572,
2001-11-07, 02:20:00,VALID,916.215,VALID,0,VALID,97.7749,VALID,-0.0509425,VALID,18.7776,VALID,111,VALID,0,
2001-11-07, 02:21:00,VALID,916.226,VALID,0,VALID,97.8169,VALID,-0.0509425,VALID,18.7848,VALID,111,VALID,0,
2001-11-07, 02:22:00,VALID,916.22,VALID,0,VALID,97.8805,VALID,-0.0169808,VALID,18.7836,VALID,111,VALID,0,
2001-11-07, 02:23:00,VALID,916.22,VALID,0,VALID,97.8589,VALID,0,VALID,18.8067,VALID,111,VALID,0,
2001-11-07, 02:24:00,VALID,916.201,VALID,0,VALID,97.8665,VALID,-0.0339617,VALID,18.8164,VALID,106,VALID,0,
2001-11-07, 02:25:00,VALID,916.206,VALID,0,VALID,97.9746,VALID,-0.0339617,VALID,18.8459,VALID,53,VALID,0.0173611,
2001-11-07, 02:26:00,VALID,916.21,VALID,0,VALID,97.8245,VALID,-0.0169808,VALID,18.8295,VALID,52,VALID,0,
2001-11-07, 02:27:00,VALID,916.213,VALID,0,VALID,97.644,VALID,-0.0509425,VALID,18.7906,VALID,52,VALID,0.00102796,
2001-11-07, 02:28:00,VALID,916.238,VALID,0,VALID,97.6808,VALID,-0.0679233,VALID,18.797,VALID,52,VALID,0,
2001-11-07, 02:29:00,VALID,916.234,VALID,0,VALID,97.574,VALID,-0.0679233,VALID,18.8129,VALID,52,VALID,0,
2001-11-07, 02:30:00,VALID,916.251,VALID,0,VALID,97.3261,VALID,-0.0169808,VALID,18.7486,VALID,52,VALID,0,
2001-11-07, 02:31:00,VALID,916.272,VALID,0,VALID,97.6618,VALID,-0.0509425,VALID,18.8134,VALID,46,VALID,0.0333059,
2001-11-07, 02:32:00,VALID,916.302,VALID,0,VALID,97.7877,VALID,0,VALID,18.8815,VALID,40,VALID,0.00300481,
2001-11-07, 02:33:00,VALID,916.335,VALID,0,VALID,97.5511,VALID,-0.0679233,VALID,18.8224,VALID,38,VALID,0.0705078,
2001-11-07, 02:34:00,VALID,916.352,VALID,0,VALID,97.78,VALID,-0.0849042,VALID,18.8722,VALID,346,VALID,0.251028,
2001-11-07, 02:35:00,VALID,916.356,VALID,0,VALID,97.7749,VALID,-0.0849042,VALID,18.8909,VALID,338,VALID,0.13978,
2001-11-07, 02:36:00,VALID,916.366,VALID,0,VALID,97.7711,VALID,-0.0679233,VALID,18.914,VALID,338,VALID,0.204928,
2001-11-07, 02:37:00,VALID,916.367,VALID,0,VALID,97.6923,VALID,-0.0849042,VALID,18.9366,VALID,338,VALID,0,
2001-11-07, 02:38:00,VALID,916.365,VALID,0,VALID,97.7966,VALID,-0.0509425,VALID,18.953,VALID,338,VALID,0,
2001-11-07, 02:39:00,VALID,916.352,VALID,0,VALID,97.6567,VALID,-0.101885,VALID,18.9267,VALID,338,VALID,0.0359375,
2001-11-07, 02:40:00,VALID,916.358,VALID,0,VALID,97.4672,VALID,-0.0849042,VALID,18.8879,VALID,338,VALID,0,
2001-11-07, 02:41:00,VALID,916.355,VALID,0,VALID,97.3223,VALID,-0.0849042,VALID,18.8325,VALID,338,VALID,0.0794271,
2001-11-07, 02:42:00,VALID,916.352,VALID,0,VALID,97.2231,VALID,-0.0849042,VALID,18.7841,VALID,338,VALID,0.116753,
2001-11-07, 02:43:00,VALID,916.356,VALID,0,VALID,96.9815,VALID,-0.101885,VALID,18.7232,VALID,338,VALID,0.271748,
2001-11-07, 02:44:00,VALID,916.37,VALID,0,VALID,97.1124,VALID,-0.101885,VALID,18.6651,VALID,339,VALID,0.306127,
2001-11-07, 02:45:00,VALID,916.36,VALID,0,VALID,97.2154,VALID,-0.0849042,VALID,18.6323,VALID,340,VALID,0.0846706,
2001-11-07, 02:46:00,VALID,916.368,VALID,0,VALID,97.1798,VALID,-0.0849042,VALID,18.5712,VALID,340,VALID,0,
2001-11-07, 02:47:00,VALID,916.36,VALID,0,VALID,97.5194,VALID,-0.0849042,VALID,18.5843,VALID,340,VALID,0,
2001-11-07, 02:48:00,VALID,916.365,VALID,0,VALID,97.7037,VALID,-0.101885,VALID,18.5972,VALID,340,VALID,0,
2001-11-07, 02:49:00,VALID,916.364,VALID,0,VALID,97.8665,VALID,-0.0849042,VALID,18.6261,VALID,340,VALID,0.0230152,
2001-11-07, 02:50:00,VALID,916.363,VALID,0,VALID,97.9212,VALID,-0.101885,VALID,18.6007,VALID,340,VALID,0.0584985,
2001-11-07, 02:51:00,VALID,916.361,VALID,0,VALID,98.1653,VALID,-0.0509425,VALID,18.6457,VALID,354,VALID,0.30957,
2001-11-07, 02:52:00,VALID,916.352,VALID,0,VALID,98.0483,VALID,-0.101885,VALID,18.6335,VALID,1,VALID,0.340255,
2001-11-07, 02:53:00,VALID,916.326,VALID,0,VALID,97.78,VALID,-0.0849042,VALID,18.5294,VALID,1,VALID,0.4081,
2001-11-07, 02:54:00,VALID,916.325,VALID,0,VALID,97.5524,VALID,-0.0679233,VALID,18.4194,VALID,1,VALID,0.432227,
2001-11-07, 02:55:00,VALID,916.317,VALID,0,VALID,98.0051,VALID,-0.0679233,VALID,18.4745,VALID,1,VALID,0.221955,
2001-11-07, 02:56:00,VALID,916.304,VALID,0,VALID,98.234,VALID,-0.0679233,VALID,18.559,VALID,1,VALID,0.266071,
2001-11-07, 02:57:00,VALID,916.29,VALID,0,VALID,97.9212,VALID,-0.0509425,VALID,18.4517,VALID,1,VALID,0.174023,
2001-11-07, 02:58:00,VALID,916.273,VALID,0,VALID,97.9924,VALID,-0.0849042,VALID,18.4159,VALID,1,VALID,0.122613,
2001-11-07, 02:59:00,VALID,916.269,VALID,0,VALID,98.1755,VALID,-0.0849042,VALID,18.4646,VALID,6,VALID,0.357639,
2001-11-07, 03:00:00,VALID,916.271,VALID,0,VALID,97.869,VALID,-0.101885,VALID,18.3806,VALID,11,VALID,0.536659,
2001-11-07, 03:01:00,VALID,916.268,VALID,0,VALID,98.1081,VALID,-0.101885,VALID,18.3675,VALID,10,VALID,0.621711,
2001-11-07, 03:02:00,VALID,916.278,VALID,0,VALID,98.3955,VALID,-0.101885,VALID,18.439,VALID,11,VALID,0.446957,
2001-11-07, 03:03:00,VALID,916.282,VALID,0,VALID,98.4896,VALID,-0.0849042,VALID,18.4877,VALID,355,VALID,0.383868,
2001-11-07, 03:04:00,VALID,916.286,VALID,0,VALID,98.6562,VALID,-0.0679233,VALID,18.5587,VALID,358,VALID,0.681424,
2001-11-07, 03:05:00,VALID,916.274,VALID,0,VALID,98.8164,VALID,-0.0339617,VALID,18.6683,VALID,9,VALID,0.907306,
2001-11-07, 03:06:00,VALID,916.274,VALID,0,VALID,98.7655,VALID,-0.0679233,VALID,18.6782,VALID,1,VALID,0.856702,
2001-11-07, 03:07:00,VALID,916.277,VALID,0,VALID,98.8494,VALID,-0.0849042,VALID,18.752,VALID,2,VALID,1.12159,
2001-11-07, 03:08:00,VALID,916.265,VALID,0,VALID,98.8698,VALID,-0.0679233,VALID,18.8109,VALID,1,VALID,0.63101,
2001-11-07, 03:09:00,VALID,916.266,VALID,0,VALID,98.8584,VALID,-0.0679233,VALID,18.8362,VALID,348,VALID,0.721495,
2001-11-07, 03:10:00,VALID,916.261,VALID,0,VALID,98.8444,VALID,-0.0339617,VALID,18.8614,VALID,353,VALID,0.469161,
2001-11-07, 03:11:00,VALID,916.256,VALID,0,VALID,98.6587,VALID,-0.0169808,VALID,18.8233,VALID,347,VALID,0.29347,
2001-11-07, 03:12:00,VALID,916.267,VALID,0,VALID,98.4451,VALID,-0.0339617,VALID,18.7456,VALID,357,VALID,0.158053,
2001-11-07, 03:13:00,VALID,916.273,VALID,0,VALID,98.5366,VALID,-0.0849042,VALID,18.7486,VALID,356,VALID,0.230928,
2001-11-07, 03:14:00,VALID,916.253,VALID,0,VALID,98.6994,VALID,-0.0339617,VALID,18.8263,VALID,7,VALID,0.939556,
2001-11-07, 03:15:00,VALID,916.235,VALID,0,VALID,98.646,VALID,-0.0679233,VALID,18.8487,VALID,18,VALID,1.16111,
2001-11-07, 03:16:00,VALID,916.213,VALID,0,VALID,98.6498,VALID,-0.0339617,VALID,18.8745,VALID,17,VALID,0.985894,
2001-11-07, 03:17:00,VALID,916.196,VALID,0,VALID,98.543,VALID,-0.0849042,VALID,18.8817,VALID,8,VALID,0.729384,
2001-11-07, 03:18:00,VALID,916.184,VALID,0,VALID,98.4807,VALID,-0.0509425,VALID,18.881,VALID,16,VALID,0.962171,
2001-11-07, 03:19:00,VALID,916.174,VALID,0,VALID,98.5023,VALID,0.0509425,VALID,18.9186,VALID,16,VALID,1.03927,
2001-11-07, 03:20:00,VALID,916.172,VALID,0,VALID,98.4133,VALID,0.0339617,VALID,18.9315,VALID,17,VALID,0.984821,
2001-11-07, 03:21:00,VALID,916.178,VALID,0,VALID,98.379,VALID,0.0509425,VALID,18.9382,VALID,9,VALID,1.06473,
2001-11-07, 03:22:00,VALID,916.193,VALID,0,VALID,98.3383,VALID,0.0339617,VALID,18.9474,VALID,10,VALID,1.05777,
2001-11-07, 03:23:00,VALID,916.19,VALID,0,VALID,98.4158,VALID,0,VALID,19.0023,VALID,3,VALID,0.933293,
2001-11-07, 03:24:00,VALID,916.188,VALID,0,VALID,98.3484,VALID,0,VALID,19.0279,VALID,344,VALID,0.617578,
2001-11-07, 03:25:00,VALID,916.191,VALID,0,VALID,98.2772,VALID,0.0509425,VALID,19.0473,VALID,5,VALID,0.875822,
2001-11-07, 03:26:00,VALID,916.184,VALID,0,VALID,98.3205,VALID,0.0509425,VALID,19.1059,VALID,17,VALID,0.91174,
2001-11-07, 03:27:00,VALID,916.19,VALID,0,VALID,98.2225,VALID,0.0509425,VALID,19.1089,VALID,9,VALID,0.607973,
2001-11-07, 03:28:00,VALID,916.192,VALID,0,VALID,98.0865,VALID,0.0339617,VALID,19.1059,VALID,6,VALID,0,
2001-11-07, 03:29:00,VALID,916.174,VALID,0,VALID,97.9186,VALID,0.0849042,VALID,19.0828,VALID,6,VALID,0.124199,
2001-11-07, 03:30:00,VALID,916.158,VALID,0,VALID,98.0941,VALID,0.0509425,VALID,19.1153,VALID,4,VALID,0.883482,
2001-11-07, 03:31:00,VALID,916.15,VALID,0,VALID,98.103,VALID,0.0509425,VALID,19.1504,VALID,7,VALID,0.961523,
2001-11-07, 03:32:00,VALID,916.145,VALID,0,VALID,98.0725,VALID,0.0679233,VALID,19.1635,VALID,12,VALID,1.18576,
2001-11-07, 03:33:00,VALID,916.138,VALID,0,VALID,98.1017,VALID,0.0509425,VALID,19.1891,VALID,7,VALID,1.2717,
2001-11-07, 03:34:00,VALID,916.133,VALID,0,VALID,97.9809,VALID,0,VALID,19.2067,VALID,8,VALID,1.19489,
2001-11-07, 03:35:00,VALID,916.103,VALID,0,VALID,97.9517,VALID,-0.0339617,VALID,19.2134,VALID,9,VALID,1.61863,
2001-11-07, 03:36:00,VALID,916.113,VALID,0,VALID,98.0471,VALID,0,VALID,19.2686,VALID,1,VALID,1.27872,
2001-11-07, 03:37:00,VALID,916.13,VALID,0,VALID,97.9962,VALID,0,VALID,19.3071,VALID,16,VALID,1.33615,
2001-11-07, 03:38:00,VALID,916.136,VALID,0,VALID,97.8334,VALID,0,VALID,19.3069,VALID,15,VALID,1.41808,